When you browse on this site, cookies collect data to enhance your experience and personalize the content and advertising you see.
Visit our Privacy Policy to learn more. By continuing to use the site, you agree to this use of cookies and data.
  • In Germany
  • List of Countries
  • For 7 days
  • Water Temperature
  • Weather Map
  • Weather Widgets
  • user-avatar
    Login

    Hourly Weather Wiktoria

    Today, 22 August, Thursday

    Time Temperature Precipitation Wind Pressure Humidity
    00:00 +10°C° 0.1 mm 7 mps 751 mmHg 81%
    01:00 +10°C° 0.1 mm 7 mps 751 mmHg 81%
    02:00 +10°C° 0 mm 7 mps 751 mmHg 80%
    03:00 +10°C° 0 mm 7 mps 751 mmHg 79%
    04:00 +10°C° 0 mm 7 mps 751 mmHg 77%
    05:00 +9°C° 0 mm 6 mps 752 mmHg 80%
    06:00 +8°C° 0 mm 6 mps 752 mmHg 83%
    07:00 +7°C° 0 mm 5 mps 752 mmHg 86%
    08:00 +8°C° 0 mm 6 mps 753 mmHg 79%
    09:00 +9°C° 0 mm 7 mps 753 mmHg 73%
    10:00 +10°C° 0 mm 6 mps 754 mmHg 67%
    11:00 +10°C° 0 mm 6 mps 754 mmHg 66%
    12:00 +10°C° 0 mm 7 mps 754 mmHg 65%
    13:00 +10°C° 0 mm 7 mps 754 mmHg 64%
    14:00 +10°C° 0 mm 7 mps 754 mmHg 64%
    15:00 +10°C° 0 mm 6 mps 754 mmHg 65%
    16:00 +10°C° 0 mm 5 mps 755 mmHg 66%
    17:00 +9°C° 0 mm 5 mps 755 mmHg 70%
    18:00 +7°C° 0 mm 4 mps 756 mmHg 73%
    19:00 +6°C° 0 mm 4 mps 756 mmHg 76%
    20:00 +5°C° 0 mm 3 mps 756 mmHg 79%
    21:00 +4°C° 0 mm 3 mps 757 mmHg 82%
    22:00 +4°C° 0 mm 2 mps 758 mmHg 82%
    23:00 +3°C° 0 mm 3 mps 758 mmHg 84%

    Tomorrow, 23 August, Friday

    Time Temperature Precipitation Wind Pressure Humidity
    00:00 +2°C° 0 mm 3 mps 757 mmHg 86%
    01:00 +2°C° 0 mm 3 mps 757 mmHg 89%
    02:00 +2°C° 0 mm 2 mps 757 mmHg 89%
    03:00 +2°C° 0 mm 2 mps 757 mmHg 90%
    04:00 +1°C° 0 mm 2 mps 756 mmHg 91%
    05:00 +2°C° 0 mm 1 mps 757 mmHg 90%
    06:00 +1°C° 0 mm 1 mps 757 mmHg 89%
    07:00 +1°C° 0 mm 1 mps 757 mmHg 89%
    08:00 +4°C° 0 mm 1 mps 757 mmHg 82%
    09:00 +5°C° 0 mm 2 mps 757 mmHg 74%
    10:00 +7°C° 0 mm 2 mps 757 mmHg 67%
    11:00 +9°C° 0 mm 2 mps 757 mmHg 64%
    12:00 +10°C° 0 mm 3 mps 756 mmHg 62%
    13:00 +12°C° 0 mm 3 mps 756 mmHg 59%
    14:00 +12°C° 0 mm 3 mps 755 mmHg 61%
    15:00 +12°C° 0 mm 3 mps 755 mmHg 63%
    16:00 +12°C° 0 mm 3 mps 754 mmHg 65%
    17:00 +10°C° 0 mm 3 mps 754 mmHg 71%
    18:00 +9°C° 0 mm 3 mps 755 mmHg 77%
    19:00 +7°C° 0 mm 3 mps 755 mmHg 82%
    20:00 +5°C° 0 mm 3 mps 755 mmHg 84%
    21:00 +4°C° 0 mm 3 mps 755 mmHg 86%
    22:00 +4°C° 0 mm 3 mps 754 mmHg 87%
    23:00 +3°C° 0 mm 3 mps 754 mmHg 88%

    Day after tomorrow, 24 August, Saturday

    Time Temperature Precipitation Wind Pressure Humidity
    00:00 +3°C° 0 mm 3 mps 754 mmHg 89%
    01:00 +3°C° 0 mm 3 mps 754 mmHg 90%
    02:00 +2°C° 0 mm 3 mps 753 mmHg 90%
    03:00 +2°C° 0 mm 3 mps 753 mmHg 91%
    04:00 +2°C° 0 mm 3 mps 753 mmHg 91%
    05:00 +1°C° 0 mm 4 mps 753 mmHg 91%
    06:00 0°C° 0 mm 4 mps 753 mmHg 91%
    07:00 0°C° 0 mm 4 mps 753 mmHg 91%
    08:00 +3°C° 0 mm 4 mps 752 mmHg 84%
    09:00 +6°C° 0 mm 4 mps 752 mmHg 78%
    10:00 +8°C° 0 mm 5 mps 752 mmHg 72%
    11:00 +10°C° 0 mm 5 mps 751 mmHg 69%
    12:00 +12°C° 0 mm 5 mps 750 mmHg 67%
    13:00 +14°C° 0 mm 5 mps 750 mmHg 65%
    14:00 +15°C° 0 mm 4 mps 749 mmHg 67%
    15:00 +15°C° 0 mm 4 mps 748 mmHg 70%
    16:00 +17°C° 0 mm 3 mps 748 mmHg 72%
    17:00 +14°C° 0 mm 3 mps 748 mmHg 75%
    18:00 +12°C° 0 mm 3 mps 748 mmHg 78%
    19:00 +11°C° 0 mm 4 mps 748 mmHg 81%
    20:00 +10°C° 0 mm 3 mps 748 mmHg 78%
    21:00 +10°C° 0 mm 3 mps 748 mmHg 75%
    22:00 +10°C° 0 mm 3 mps 748 mmHg 73%
    23:00 +10°C° 0.1 mm 2 mps 748 mmHg 78%

    25 August, Sunday

    Time Temperature Precipitation Wind Pressure Humidity
    00:00 +9°C° 0.1 mm 2 mps 749 mmHg 84%
    01:00 +8°C° 0.1 mm 2 mps 749 mmHg 89%
    02:00 +8°C° 0.1 mm 2 mps 749 mmHg 90%
    03:00 +8°C° 0.1 mm 3 mps 749 mmHg 91%
    04:00 +8°C° 0.1 mm 3 mps 749 mmHg 92%
    05:00 +6°C° 0 mm 4 mps 750 mmHg 91%
    06:00 +5°C° 0 mm 5 mps 751 mmHg 90%
    07:00 +5°C° 0 mm 5 mps 751 mmHg 89%
    08:00 +5°C° 0 mm 6 mps 752 mmHg 82%
    09:00 +7°C° 0 mm 6 mps 752 mmHg 76%
    10:00 +8°C° 0 mm 6 mps 752 mmHg 70%
    11:00 +9°C° 0 mm 6 mps 752 mmHg 67%
    12:00 +10°C° 0 mm 6 mps 752 mmHg 64%
    13:00 +11°C° 0 mm 6 mps 752 mmHg 62%
    14:00 +10°C° 0 mm 6 mps 752 mmHg 62%
    15:00 +10°C° 0 mm 6 mps 752 mmHg 63%
    16:00 +10°C° 0 mm 6 mps 752 mmHg 63%
    17:00 +8°C° 0 mm 5 mps 752 mmHg 67%
    18:00 +7°C° 0 mm 4 mps 753 mmHg 71%
    19:00 +5°C° 0 mm 4 mps 754 mmHg 74%
    20:00 +4°C° 0 mm 4 mps 754 mmHg 77%
    21:00 +3°C° 0 mm 4 mps 754 mmHg 80%
    22:00 +3°C° 0 mm 3 mps 755 mmHg 82%
    23:00 +2°C° 0 mm 3 mps 755 mmHg 85%

    26 August, Monday

    Time Temperature Precipitation Wind Pressure Humidity
    00:00 +2°C° 0 mm 3 mps 755 mmHg 89%
    01:00 +1°C° 0 mm 3 mps 755 mmHg 92%
    02:00 +1°C° 0 mm 3 mps 755 mmHg 92%
    03:00 +1°C° 0 mm 3 mps 755 mmHg 92%
    04:00 +1°C° 0 mm 3 mps 755 mmHg 92%
    05:00 +1°C° 0 mm 3 mps 755 mmHg 92%
    06:00 +1°C° 0 mm 3 mps 756 mmHg 93%
    07:00 +2°C° 0 mm 2 mps 756 mmHg 93%
    08:00 +4°C° 0 mm 3 mps 756 mmHg 86%
    09:00 +7°C° 0 mm 3 mps 756 mmHg 79%
    10:00 +10°C° 0 mm 3 mps 756 mmHg 72%
    11:00 +11°C° 0 mm 3 mps 756 mmHg 68%
    12:00 +12°C° 0 mm 3 mps 756 mmHg 64%
    13:00 +13°C° 0 mm 3 mps 755 mmHg 60%
    14:00 +13°C° 0 mm 3 mps 755 mmHg 63%
    15:00 +13°C° 0 mm 3 mps 755 mmHg 65%
    16:00 +13°C° 0 mm 3 mps 754 mmHg 67%
    17:00 +11°C° 0 mm 3 mps 755 mmHg 72%
    18:00 +9°C° 0 mm 3 mps 756 mmHg 77%
    19:00 +7°C° 0 mm 3 mps 756 mmHg 82%
    20:00 +7°C° 0 mm 3 mps 756 mmHg 82%
    21:00 +5°C° 0 mm 3 mps 756 mmHg 83%
    22:00 +4°C° 0 mm 3 mps 757 mmHg 83%
    23:00 +5°C° 0 mm 2 mps 757 mmHg 85%

    27 August, Tuesday

    Time Temperature Precipitation Wind Pressure Humidity
    00:00 +4°C° 0 mm 2 mps 757 mmHg 87%
    01:00 +4°C° 0 mm 2 mps 757 mmHg 90%
    02:00 +4°C° 0 mm 2 mps 757 mmHg 90%
    03:00 +3°C° 0 mm 2 mps 757 mmHg 90%
    04:00 +4°C° 0 mm 1 mps 756 mmHg 90%
    05:00 +4°C° 0 mm 1 mps 757 mmHg 90%
    06:00 +4°C° 0 mm 1 mps 757 mmHg 89%
    07:00 +3°C° 0 mm 1 mps 758 mmHg 89%
    08:00 +6°C° 0 mm 1 mps 758 mmHg 83%
    09:00 +7°C° 0 mm 0 mps 758 mmHg 77%
    10:00 +10°C° 0 mm 0 mps 758 mmHg 70%
    11:00 +12°C° 0 mm 1 mps 757 mmHg 67%
    12:00 +13°C° 0 mm 1 mps 757 mmHg 64%
    13:00 +14°C° 0 mm 1 mps 756 mmHg 61%
    14:00 +14°C° 0 mm 1 mps 756 mmHg 61%
    15:00 +14°C° 0 mm 1 mps 756 mmHg 62%
    16:00 +14°C° 0 mm 1 mps 756 mmHg 62%
    17:00 +12°C° 0 mm 1 mps 756 mmHg 68%
    18:00 +10°C° 0 mm 1 mps 757 mmHg 74%
    19:00 +8°C° 0 mm 1 mps 757 mmHg 80%
    20:00 +8°C° 0 mm 1 mps 757 mmHg 82%
    21:00 +7°C° 0 mm 1 mps 757 mmHg 84%
    22:00 +6°C° 0 mm 1 mps 758 mmHg 86%
    23:00 +6°C° 0 mm 1 mps 758 mmHg 87%
    Show more